Location: Lewisville
(33.0462°N, 96.9942°W)
Time: 09:59:21
(UTC-06:00)

Hubble Space Telescope - Visible Passes

Search period start: 19 January 2021 00:00
Search period end: 29 January 2021 00:00
Orbit: 536 x 539 km, 28.5° (Epoch: 19 January)

Date Brightness Start Highest point End Pass type
(mag) Time Alt. Az. Time Alt. Az. Time Alt. Az.
19 Jan 2.0 18:33:03 10° SW 18:36:44 32° SSE 18:40:12 11° ESE visible
19 Jan 2.9 20:13:40 10° WSW 20:15:31 24° WSW 20:15:31 24° WSW visible
20 Jan 1.9 18:22:04 10° WSW 18:25:52 35° S 18:29:40 10° ESE visible
20 Jan 2.4 20:02:49 10° WSW 20:05:22 31° SW 20:05:22 31° SW visible
21 Jan 1.8 18:11:08 10° WSW 18:14:59 39° S 18:18:51 10° ESE visible
21 Jan 1.9 19:51:59 10° WSW 19:55:14 38° SSW 19:55:14 38° SSW visible
22 Jan 1.7 19:41:10 10° WSW 19:45:02 39° S 19:45:09 39° S visible
23 Jan 1.9 19:30:21 10° WSW 19:34:09 36° S 19:35:07 31° SSE visible
24 Jan 2.1 19:19:34 10° WSW 19:23:17 32° SSW 19:25:09 22° SSE visible
25 Jan 2.4 19:08:49 10° WSW 19:12:23 28° SSW 19:15:15 14° SE visible
26 Jan 2.7 18:58:06 10° WSW 19:01:30 25° SSW 19:04:53 10° SE visible
27 Jan 3.0 18:47:27 10° WSW 18:50:35 21° SSW 18:53:43 10° SSE visible
28 Jan 3.3 18:36:53 10° WSW 18:39:40 18° SSW 18:42:27 10° SSE visible
